[[{"header":{"parameterUnit":"m.s-1","parameterCategory":1,"la1":30.2991,"la2":30.254,"lo1":-89.0895,"lo2":-89.0444,"dy":0.0017,"dx":0.0017,"nx":28,"ny":28,"refTime":"2025-01-25T09:00:00:Z","depth":0,"parameterNumber":2,"parameterNumberName":"U-component_of_WINDS"},"data":[0,0,0,0,0,0,0,0,0,0,0,0,0,0,0,0,0,0,0,0,0,0,0,0,0,0,0,0,0,0,0,0,0,0,0,0,0,0,0,0,0,0,0,0,0,0,0,0,0,0,0,0,0,0,0,0,0,0,-5.2493,-5.2494,0,-5.2538,-5.2538,-5.2539,-5.2376,-5.2371,-5.2366,-5.2362,-5.2407,-5.2413,-5.2419,0,0,0,0,0,0,0,0,0,0,0,0,0,-5.2265,-5.227,-5.2493,-5.2494,-5.2494,-5.2538,-5.2538,-5.2539,-5.2377,-5.2371,-5.2365,-5.2359,-5.2405,-5.2412,-5.2419,0,0,0,0,0,0,0,0,0,0,0,0,0,-5.2343,-5.2272,-5.2493,-5.2419,-5.2412,-5.2538,-5.2538,-5.2539,-5.2378,-5.2371,-5.2363,-5.2357,-5.2403,-5.2412,-5.242,-5.2619,0,0,-5.2446,-5.245,0,0,0,0,0,0,0,0,-5.2338,-5.2351,-5.2429,-5.2424,-5.2417,-5.2444,-5.2474,-5.2566,-5.238,-5.2391,-5.2361,-5.2353,-5.2425,-5.2432,-5.2456,-5.2621,-5.2623,-5.2447,-5.2452,-5.2456,-5.2459,0,0,0,0,0,0,0,-5.2333,-5.2348,-5.2511,-5.243,-5.2423,-5.2382,-5.2385,-5.2491,-5.2449,-5.239,-5.2378,-5.2385,-5.2421,-5.2448,-5.2456,-5.2624,-5.2447,-5.2455,-5.246,-5.2463,-5.2952,-5.2959,0,0,0,0,0,0,-5.2338,-5.2345,-5.2509,-5.2512,-5.2359,-5.2392,-5.2395,-5.2443,-5.2447,-5.2441,-5.2392,-5.2378,-5.2437,-5.2446,-5.2457,-5.2688,-5.2456,-5.2464,-5.2469,-5.2944,-5.2953,-5.2962,0,0,0,0,0,0,-5.2334,-5.2354,-5.2507,-5.2425,-5.2442,-5.2404,-5.2458,-5.2447,-5.2474,-5.2448,-5.244,-5.2428,-5.2432,-5.2445,-5.2579,-5.2688,-5.2468,-5.2476,-5.2935,-5.2947,-5.2958,-5.3154,0,0,0,0,0,0,-5.2328,-5.2353,-5.243,-5.2428,-5.2447,-5.2631,-5.2465,-5.2454,-5.249,-5.2472,-5.248,-5.2474,-5.2427,-5.2567,-5.2588,-5.2695,-5.2483,-5.2925,-5.294,-5.2954,-5.3138,-5.3171,-5.32,0,0,0,0,0,-5.232,-5.2484,-5.2434,-5.2455,-5.2541,-5.2637,-5.2648,-5.259,-5.2499,-5.2575,-5.2557,-5.2474,-5.2673,-5.2583,-5.2604,-5.2716,-5.2918,-5.2936,-5.2953,-5.3124,-5.3165,-5.3199,0,0,0,0,0,0,-5.2499,-5.2482,-5.2427,-5.2595,-5.2619,-5.2609,-5.2703,-5.2635,-5.2685,-5.2666,-5.2592,-5.2595,-5.2743,-5.2743,-5.2643,-5.2907,-5.2779,-5.2802,-5.2902,-5.294,-5.2971,-5.2967,-5.249,0,0,0,0,0,-5.2558,-5.2638,-5.2619,-5.2769,-5.2783,-5.2742,-5.2782,-5.2735,-5.2756,-5.2765,-5.2758,-5.2782,-5.2848,-5.2895,-5.2955,-5.3137,-5.3135,-5.3224,-5.3255,-5.3281,-5.3301,-5.3395,-5.3433,-5.3019,-5.3019,-5.3019,0,0,-5.2681,-5.2682,-5.2737,-5.2805,-5.2818,-5.2901,-5.2751,-5.2846,-5.2907,-5.2779,-5.2905,-5.2901,-5.2922,-5.3081,-5.315,-5.3086,-5.3415,-5.3303,-5.3324,-5.333,-5.3417,-5.3456,-5.3491,-5.3031,-5.3029,-5.3027,0,0,-5.2947,-5.2957,-5.3081,-5.3097,-5.3117,-5.3088,-5.3119,-5.3119,-5.3111,-5.3236,-5.3142,-5.3212,-5.3331,-5.3349,-5.3374,-5.3645,-5.3569,-5.3667,-5.3828,-5.392,-5.3952,-5.3981,-5.4075,-5.411,-5.3687,-5.3687,-5.3688,0,-5.3097,-5.3219,-5.3154,-5.3255,-5.3287,-5.3175,-5.33,-5.3318,-5.3358,-5.3382,-5.3309,-5.3453,-5.346,-5.3619,-5.3685,-5.371,-5.3741,-5.3665,-5.3953,-5.3981,-5.4006,-5.4096,-5.4132,-5.3699,-5.3698,-5.3696,-5.3695,0,-5.3402,-5.3488,-5.3586,-5.3626,-5.3669,-5.3782,-5.3733,-5.3784,-5.3733,-5.3712,-5.3839,-5.3843,-5.3901,-5.3936,-5.3888,-5.4089,-5.4048,-5.3966,-5.3835,-5.4059,-5.4141,-5.4175,-5.3716,-5.3711,-5.3708,-5.3705,0,0,-5.3783,-5.3784,-5.3821,-5.3837,-5.385,-5.3915,-5.4022,-5.4078,-5.4123,-5.4154,-5.424,-5.4342,-5.4265,-5.4293,-5.4246,-5.4327,-5.4539,-5.4234,-5.4233,-5.4289,-5.4758,-5.4819,-5.4859,-5.4489,-5.4495,-5.45,-5.4755,0,-5.4042,-5.4224,-5.4168,-5.4351,-5.4429,-5.4322,-5.4415,-5.4433,-5.4415,-5.4477,-5.4457,-5.453,-5.4424,-5.444,-5.4515,-5.4497,-5.4632,-5.4478,-5.4567,-5.4571,-5.4564,-5.4903,-5.4968,-5.5208,-5.4787,-5.4793,-5.4797,0,-5.437,-5.4412,-5.4604,-5.4602,-5.4632,-5.4717,-5.4762,-5.4824,-5.4841,-5.4822,-5.4854,-5.4789,-5.4892,-5.4762,-5.4902,-5.4799,-5.4832,-5.4828,-5.4836,-5.4841,-5.4697,-5.4915,-5.5284,-5.532,-5.4847,-5.4843,-5.4839,0,-5.4626,-5.4731,-5.4858,-5.4875,-5.4877,-5.4938,-5.4942,-5.4952,-5.4989,-5.5029,-5.5052,-5.5104,-5.5133,-5.5174,-5.5124,-5.5035,-5.5271,-5.5138,-5.5257,-5.5258,-5.5311,-5.5308,-5.5688,-5.5335,-5.5335,-5.5334,-5.5333,0,-5.4921,-5.5041,-5.4973,-5.5051,-5.5182,-5.5116,-5.5247,-5.5239,-5.5249,-5.5322,-5.5234,-5.5305,-5.5236,-5.53,-5.5262,-5.5383,-5.5397,-5.5383,-5.5372,-5.5391,-5.5392,-5.541,-5.5392,-5.5344,-5.5342,-5.534,-5.5338,0,-5.5229,-5.5188,-5.5319,-5.5309,-5.531,-5.5407,-5.5398,-5.5469,-5.5444,-5.5539,-5.5557,-5.5518,-5.5589,-5.5544,-5.5617,-5.559,-5.5747,-5.5713,-5.5742,-5.5732,-5.5853,-5.5842,-5.6257,-5.6307,-5.5924,-5.5928,-5.5931,0,-5.5419,-5.5509,-5.5508,-5.5551,-5.556,-5.5631,-5.5667,-5.5605,-5.5646,-5.5672,-5.574,-5.5803,-5.585,-5.5969,-5.5946,-5.6001,-5.5966,-5.6108,-5.5974,-5.5989,-5.5966,-5.596,-5.5968,-5.6135,-5.6139,-5.6143,-5.6146,0,-5.576,-5.5735,-5.5791,-5.584,-5.5886,-5.5922,-5.595,-5.599,-5.5927,-5.5978,-5.6049,-5.6086,-5.6159,-5.6222,-5.6267,-5.6269,-5.6197,-5.6188,-5.6218,-5.6238,-5.625,-5.6243,-5.5814,-5.6179,-5.6176,-5.6173,-5.6171,-5.617,-5.6013,-5.6087,-5.6098,-5.6163,-5.6177,-5.6205,-5.6271,-5.6254,-5.6312,-5.6366,-5.6325,-5.641,-5.6422,-5.6475,-5.6487,-5.6551,-5.6493,-5.6537,-5.6548,-5.6559,-5.6575,-5.6241,-5.6559,-5.6558,-5.6557,-5.6556,-5.6555,0,-5.6348,-5.6349,-5.641,-5.6451,-5.6502,-5.6429,-5.6456,-5.6503,-5.6578,-5.6596,-5.6644,-5.6725,-5.6785,-5.6768,-5.6821,-5.6876,-5.6844,-5.6892,-5.6887,-5.6888,-5.6625,-5.6593,-5.6917,-5.6917,-5.6917,-5.6917,-5.6916,-5.6916,-5.6528,-5.6649,-5.6625,-5.6751,-5.675,-5.6832,-5.6853,-5.6878,-5.6892,-5.6986,-5.7035,-5.7023,-5.7026,-5.7079,-5.7131,-5.7124,-5.7147,-5.7207,-5.7188,-5.6942,-5.6907,-5.6873,-5.6842,-5.7213,-5.7213,-5.7445,-5.7447,-5.7448]},{"header":{"parameterUnit":"m.s-1","parameterCategory":1,"la1":30.2991,"la2":30.254,"lo1":-89.0895,"lo2":-89.0444,"dy":0.0017,"dx":0.0017,"nx":28,"ny":28,"refTime":"2025-01-25T09:00:00:Z","depth":0,"parameterNumber":3,"parameterNumberName":"V-component_of_WINDS"},"data":[0,0,0,0,0,0,0,0,0,0,0,0,0,0,0,0,0,0,0,0,0,0,0,0,0,0,0,0,0,0,0,0,0,0,0,0,0,0,0,0,0,0,0,0,0,0,0,0,0,0,0,0,0,0,0,0,0,0,-0.1908,-0.1909,0,-0.2031,-0.2033,-0.2034,-0.2062,-0.2061,-0.206,-0.2059,-0.2191,-0.2196,-0.22,0,0,0,0,0,0,0,0,0,0,0,0,0,-0.17,-0.1704,-0.1908,-0.1909,-0.1911,-0.2031,-0.2033,-0.2035,-0.2062,-0.2061,-0.206,-0.2059,-0.219,-0.2195,-0.22,0,0,0,0,0,0,0,0,0,0,0,0,0,-0.1804,-0.1705,-0.1908,-0.1939,-0.1943,-0.2031,-0.2033,-0.2035,-0.2062,-0.2061,-0.2059,-0.2058,-0.2188,-0.2195,-0.2201,-0.2268,0,0,-0.2221,-0.2224,0,0,0,0,0,0,0,0,-0.1798,-0.1812,-0.1933,-0.1937,-0.1942,-0.203,-0.2008,-0.2113,-0.2062,-0.2017,-0.2059,-0.2058,-0.2139,-0.2149,-0.2176,-0.2274,-0.228,-0.2221,-0.2225,-0.2228,-0.223,0,0,0,0,0,0,0,-0.1791,-0.1806,-0.1957,-0.1935,-0.194,-0.1948,-0.1962,-0.2028,-0.2084,-0.2021,-0.2023,-0.2037,-0.2141,-0.2169,-0.2179,-0.2282,-0.2221,-0.2227,-0.2231,-0.2234,-0.2441,-0.2443,0,0,0,0,0,0,-0.1777,-0.18,-0.1953,-0.1961,-0.1865,-0.1953,-0.1968,-0.2003,-0.2084,-0.2094,-0.2038,-0.2038,-0.2159,-0.2171,-0.2184,-0.2267,-0.2228,-0.2234,-0.2238,-0.2439,-0.2441,-0.2443,0,0,0,0,0,0,-0.1773,-0.1791,-0.1948,-0.1881,-0.1902,-0.1958,-0.1997,-0.2006,-0.2034,-0.2096,-0.2107,-0.2056,-0.2158,-0.2175,-0.2246,-0.2272,-0.2237,-0.2243,-0.2438,-0.244,-0.2442,-0.2435,0,0,0,0,0,0,-0.1767,-0.1789,-0.1814,-0.1881,-0.1905,-0.2007,-0.1999,-0.2009,-0.2045,-0.2046,-0.2116,-0.2127,-0.2159,-0.2236,-0.2253,-0.2281,-0.2248,-0.2436,-0.2439,-0.2441,-0.2433,-0.2437,-0.244,0,0,0,0,0,-0.1759,-0.1809,-0.1815,-0.1834,-0.1937,-0.2009,-0.2022,-0.2056,-0.2047,-0.2073,-0.2113,-0.2125,-0.2266,-0.2244,-0.2262,-0.2293,-0.2434,-0.2438,-0.2441,-0.2432,-0.2436,-0.244,0,0,0,0,0,0,-0.1746,-0.1818,-0.1826,-0.1899,-0.1947,-0.2013,-0.2048,-0.206,-0.2114,-0.2112,-0.2154,-0.2169,-0.2238,-0.2273,-0.2246,-0.2361,-0.235,-0.2358,-0.2337,-0.2341,-0.2345,-0.2336,-0.2254,0,0,0,0,0,-0.1751,-0.1801,-0.1862,-0.192,-0.1944,-0.1991,-0.2023,-0.2045,-0.2097,-0.2119,-0.2164,-0.2216,-0.2272,-0.2309,-0.2364,-0.2438,-0.2454,-0.2468,-0.2471,-0.2474,-0.248,-0.2522,-0.2529,-0.2455,-0.2455,-0.2455,0,0,-0.1763,-0.1808,-0.1838,-0.1918,-0.1958,-0.201,-0.2008,-0.2064,-0.2104,-0.2128,-0.2198,-0.2232,-0.2293,-0.2366,-0.2401,-0.2397,-0.2504,-0.2478,-0.248,-0.2485,-0.2526,-0.2533,-0.2539,-0.2457,-0.2457,-0.2456,0,0,-0.1811,-0.185,-0.1902,-0.1941,-0.2001,-0.2032,-0.2044,-0.2108,-0.2131,-0.2201,-0.222,-0.2269,-0.2365,-0.2407,-0.2441,-0.2503,-0.2516,-0.252,-0.2538,-0.2578,-0.2584,-0.2589,-0.2612,-0.2619,-0.2526,-0.2526,-0.2526,0,-0.1819,-0.1896,-0.1928,-0.1982,-0.2017,-0.2038,-0.2092,-0.213,-0.2205,-0.2229,-0.2223,-0.2343,-0.2386,-0.2469,-0.2483,-0.251,-0.2526,-0.2513,-0.258,-0.2586,-0.2591,-0.2613,-0.2622,-0.2526,-0.2526,-0.2526,-0.2526,0,-0.1903,-0.1956,-0.1992,-0.2061,-0.21,-0.2154,-0.2195,-0.2231,-0.2248,-0.228,-0.2351,-0.2402,-0.2468,-0.2489,-0.2508,-0.2575,-0.257,-0.2571,-0.2561,-0.2598,-0.2619,-0.2628,-0.2526,-0.2526,-0.2526,-0.2526,0,0,-0.1948,-0.2032,-0.2045,-0.2076,-0.2142,-0.2185,-0.224,-0.2302,-0.2332,-0.2383,-0.243,-0.251,-0.2511,-0.2549,-0.2573,-0.2608,-0.2653,-0.2605,-0.2607,-0.2613,-0.273,-0.2729,-0.2739,-0.2661,-0.2663,-0.2665,-0.2725,0,-0.2005,-0.2101,-0.213,-0.2212,-0.2262,-0.2282,-0.233,-0.2376,-0.2407,-0.2455,-0.249,-0.2545,-0.2542,-0.2566,-0.2601,-0.264,-0.2678,-0.2636,-0.2708,-0.271,-0.2693,-0.275,-0.2749,-0.2804,-0.2734,-0.2735,-0.2736,0,-0.2084,-0.2133,-0.2219,-0.2277,-0.23,-0.2342,-0.24,-0.2445,-0.2499,-0.2519,-0.256,-0.258,-0.2639,-0.2624,-0.2706,-0.2677,-0.2708,-0.2732,-0.2735,-0.2744,-0.2726,-0.2761,-0.2823,-0.2831,-0.275,-0.2749,-0.2748,0,-0.2109,-0.2197,-0.2259,-0.2285,-0.2355,-0.2384,-0.2415,-0.2466,-0.2501,-0.2553,-0.2576,-0.2635,-0.2667,-0.2712,-0.2748,-0.2734,-0.2827,-0.2815,-0.2847,-0.2846,-0.2867,-0.2865,-0.2935,-0.2885,-0.2885,-0.2885,-0.2884,0,-0.217,-0.2222,-0.2271,-0.231,-0.2368,-0.2401,-0.2459,-0.2491,-0.2536,-0.2583,-0.2604,-0.2647,-0.2691,-0.274,-0.2768,-0.2832,-0.2847,-0.2866,-0.2873,-0.2864,-0.2862,-0.2886,-0.2884,-0.2887,-0.2886,-0.2886,-0.2886,0,-0.2208,-0.2243,-0.2312,-0.2372,-0.2388,-0.2428,-0.248,-0.2519,-0.2549,-0.2607,-0.2623,-0.2671,-0.273,-0.2769,-0.2846,-0.2865,-0.2934,-0.294,-0.2916,-0.2919,-0.2949,-0.2946,-0.3038,-0.3052,-0.2991,-0.2991,-0.2992,0,-0.2245,-0.2285,-0.2347,-0.2378,-0.2408,-0.2459,-0.2494,-0.2528,-0.2564,-0.2626,-0.2657,-0.2717,-0.2766,-0.286,-0.2903,-0.2961,-0.2969,-0.2997,-0.2979,-0.2968,-0.2971,-0.2968,-0.2973,-0.3001,-0.3001,-0.3002,-0.3002,0,-0.2307,-0.2322,-0.237,-0.2424,-0.2464,-0.251,-0.2555,-0.2579,-0.2622,-0.2661,-0.272,-0.2758,-0.2834,-0.2893,-0.2955,-0.2989,-0.3003,-0.3007,-0.3018,-0.301,-0.2995,-0.3004,-0.2925,-0.3006,-0.3005,-0.3005,-0.3005,-0.3005,-0.2347,-0.2383,-0.2431,-0.2485,-0.2521,-0.2562,-0.2601,-0.2635,-0.2684,-0.2748,-0.2765,-0.2827,-0.2878,-0.2962,-0.2996,-0.3046,-0.3043,-0.3059,-0.3063,-0.3066,-0.3066,-0.2985,-0.3057,-0.3057,-0.3057,-0.3057,-0.3057,0,-0.241,-0.2442,-0.249,-0.2551,-0.2593,-0.2599,-0.2649,-0.2684,-0.2738,-0.2783,-0.2831,-0.2898,-0.2955,-0.3002,-0.3061,-0.3092,-0.31,-0.3107,-0.3106,-0.3113,-0.3065,-0.305,-0.3099,-0.3099,-0.3099,-0.3099,-0.3099,-0.3099,-0.2448,-0.2509,-0.2529,-0.2609,-0.2641,-0.27,-0.2728,-0.2766,-0.2803,-0.2876,-0.2923,-0.2952,-0.2998,-0.3061,-0.3114,-0.3126,-0.3148,-0.3153,-0.3167,-0.3121,-0.3117,-0.3112,-0.3098,-0.3157,-0.3157,-0.3211,-0.3211,-0.3212]}]]